Regional Weather Roundup
Issued by NWS Wakefield, VA

Home | Current Version | Previous Version | Text Only | Print | Product List | Glossary Off
Versions: 1 2 3 4 5 6 7 8 9 10 11 12 13 14 15 16 17 18 19 20 21 22 23 24 25 26 27 28 29 30 31 32 33 34 35 36 37 38 39 40 41 42 43 44 45 46 47 48 49 50

000
ASUS41 KAKQ 271010
RWRAKQ

REGIONAL WEATHER ROUNDUP
NATIONAL WEATHER SERVICE WAKEFIELD VA
500 AM EST TUE JAN 27 2015

Note: "fair" indicates few or no clouds below 12,000 feet with no
significant weather and/or obstructions to visibility. * = Denotes
station may not report precipitation (e.g., rain,snow,etc.),
thunder or fog.

VAZ042-051-052>054-056-271100-
NORTHERN VIRGINIA

CITY           SKY/WX    TMP DP  RH WIND       PRES   REMARKS
WASH NATIONAL  FLURRIES  32  23  69 NW12      29.76S WCI  23
DULLES         CLOUDY    28  21  75 NW15G21   29.75S WCI  16
FORT BELVOIR   MIX PCPN  28  23  80 NW7       29.76R
QUANTICO         N/A     30  22  72 N17G24    29.77R WCI  18
FREDERICKSBRG* CLOUDY    31  26  80 N8G22     29.75R
STAFFORD*      CLOUDY    29  26  87 CALM      29.79S
WARRENTON      CLOUDY    31  28  88 N14       29.74S WCI  21
CULPEPER*      LGT SNOW  30  25  80 N9        29.75S
MANASSAS*      CLOUDY    28  27  93 N13       29.76S WCI  18
LEESBURG*      FLURRIES  30  27  86 N14G22    29.77S WCI  20
WINCHESTER     CLOUDY    30  21  69 NW8       29.77R
FRONT ROYAL*   CLOUDY    27  25  93 CALM      29.76S
LURAY*         LGT SNOW  28  28 100 CALM      29.76R
$$

VAZ048-049-060>072-079>083-271100-
CENTRAL AND SOUTH CENTRAL VIRGINIA

CITY           SKY/WX    TMP DP  RH WIND       PRES   REMARKS
RICHMOND       CLOUDY    31  24  75 N15G28    29.73R WCI  20
CHESTERFIELD*  CLOUDY    30  16  55 N13G20    29.74R WCI  20
PETERSBURG*    MOCLDY    33  24  70 N12       29.74R WCI  24
HANOVER        LGT SNOW  30  23  75 NW8       29.75R
TAPPAHANNOCK*  LGT SNOW  29  25  83 NW8       29.73S
QUINTON*       CLOUDY    30  26  87 N7        29.72S
CHARLOTTSVILLE CLOUDY    32  22  66 NW9       29.72R
GORDONSVILLE*  CLOUDY    28  24  82 CALM      29.73R
ORANGE*        CLOUDY    32  27  80 N7        29.75R
LOUISA*        LGT SNOW  30  25  80 N5        29.72R
BUMPASS*       CLOUDY    30  24  78 N7        29.73R
FARMVILLE*     LGT SNOW  33  33 100 CALM      29.73R
CREWE*         CLOUDY    31  26  83 NW6       29.73R
FORT PICKETT*  CLOUDY    30  27  86 N6        29.72S
CHASE CITY*    CLOUDY    34  34 100 CALM      29.73R
CLARKSVILLE*   CLOUDY    32  32 100 NW5       29.73R
SOUTH HILL*    CLOUDY    31  27  86 N7        29.78R
LAWRENCEVILLE* CLOUDY    31  28  87 NW6       29.72R
EMPORIA*       CLOUDY    32  27  80 NW7       29.73S
$$

VAZ088>098-271100-
SOUTHEAST VIRGINIA

CITY           SKY/WX    TMP DP  RH WIND       PRES   REMARKS
NORFOLK        LGT SNOW  31  27  85 NW12G20   29.69R WCI  22
VIRGINIA BEACH LGT SNOW  32  29  88 NW16      29.67R FOG     WCI  21
NORFOLK NAVAL  LGT SNOW  33  26  75 NW16      29.70R WCI  23
WEST POINT*    CLOUDY    32  26  80 N9        29.73S
SALUDA*        CLOUDY    28  26  89 N13       29.70R WCI  18
NEWPORT NEWS   LGT SNOW  32  27  81 N8        29.70R VSB 1
LANGLEY AFB    LGT SNOW  29  27  90 N8        29.69R FOG
FORT EUSTIS    LGT SNOW  31  30  99 N7        29.68S FOG
WILLIAMSBURG*    N/A     32  28  86 N9        29.71S
HR EXEC AP*    CLOUDY    30  27  86 N6        29.72R
FRANKLIN*      CLOUDY    31  27  83 NW8       29.71S
WAKEFIELD      CLOUDY    32  27  81 N5        29.71R
$$

VAZ020-022-025-037-045-271100-
WEST CENTRAL AND SOUTHWEST VIRGINIA

CITY           SKY/WX    TMP DP  RH WIND       PRES   REMARKS
STAUNTON*      FLURRIES  29  25  87 NE7       29.74S
WAYNESBORO*    CLOUDY    27  25  93 N7        29.71S
HOT SPRINGS VA CLEAR     14  14  99 NW15      29.58R WCI  -1
LYNCHBURG      CLOUDY    31  19  61 VRB5      29.73R
DANVILLE       CLOUDY    34  19  54 NW13      29.76R WCI  25
SOUTH BOSTON*  CLOUDY    32  27  80 W5        29.74S
MARTINSVILLE   CLEAR     26  17  68 NW3       29.78R
ROANOKE        CLEAR     26  13  57 NW7       29.78R
BLACKSBURG     CLEAR     20  11  66 W10G18    29.76R WCI   9
DUBLIN*        MOCLDY    23  16  74 CALM      29.77R
MARION*        CLOUDY    23  15  70 NW16G22   29.76S WCI  10
HILLSVILLE*    MOCLDY    21  15  77 NW9       29.70S
RICHLANDS*     CLOUDY    22  15  75 NW9       29.76S
WISE*          CLOUDY    25  23  93 N3        29.77S
ABINGDON*      CLOUDY    28  20  70 NW7       29.80S
$$

MDZ021>025-VAZ099-100-271100-
SOUTHERN MARYLAND AND THE DELMARVA PENINSULA

CITY           SKY/WX    TMP DP  RH WIND       PRES   REMARKS
PATUXENT RIVER CLOUDY    29  22  75 N18G26    29.71R WCI  16
BAY BRIDGE APT   N/A     30  23  74 N15G23    29.73S WCI  19
LEONARDTOWN    CLOUDY    28  25  86 N8        29.73R
DOVER          FLURRIES  27  23  86 N16       29.69R WCI  14
GEORGETOWN     CLOUDY    28  21  75 N15       29.67R WCI  16
EASTON         CLOUDY    30  25  83 N10       29.75R WCI  21
CAMBRIDGE      PTCLDY    32  27  80 CALM      29.71R
SALISBURY      CLOUDY    30  25  81 N13       29.67R WCI  20
OCEAN CITY     CLOUDY    30  24  78 N16G26    29.65R WCI  19
WALLOPS ISLAND CLOUDY    29  26  89 N10       29.66R WCI  20
ACCOMACK*      CLOUDY    32  27  80 NW16G24   29.66S WCI  21
$$

NCZ012>017-030>032-271100-
NORTH CENTRAL AND EASTERN NORTH CAROLINA

CITY           SKY/WX    TMP DP  RH WIND       PRES   REMARKS
ROANOKE RAPIDS FAIR      34  28  80 N12       29.72R
RALEIGH        FLURRIES  34  29  82 CALM      29.74R
ELIZABETH CITY CLOUDY    33  29  85 NW15      29.67R WCI  23
AHOSKIE*       CLOUDY    32  26  80 N7        29.71S
EDENTON*       CLOUDY    33  29  86 N13       29.68R WCI  24
CURRITUCK*     LGT SNOW  33  31  93 NW12      29.67S WCI  24
KILL DEVIL HLS LGT SNOW  33  33  97 NW8G17    29.63S
MANTEO         CLOUDY    34  32  93 NW13      29.65R WCI  25
CAPE HATTERAS  CLOUDY    37  34  89 N10G20    29.63R
TARBORO*       CLOUDY    36  27  72 N8G17     29.73R
GOLDSBORO      MOCLDY    37  36  98 N8        29.71R
WASHINGTON     CLOUDY    36  32  86 NW6       29.68R
GREENVILLE     CLOUDY    36  30  80 N6        29.74R
NEW BERN       CLOUDY    42  33  70 NW13G18   29.69R
WILMINGTON     CLOUDY    43  38  82 NW16      29.70R
$$

VAZ048-271100-
ELSEWHERE

CITY           SKY/WX    TMP DP  RH WIND       PRES   REMARKS
HARRISBURG PA  FLURRIES  26  20  77 N10       29.75S WCI  16
BALTIMORE      FLURRIES  28  22  78 NW7       29.73R
ANNAPOLIS      CLOUDY    30  23  75 NW12      29.73R WCI  20
ANDREWS AFB    LGT SNOW  27  25  91 NW13      29.73R FOG     WCI  16
PHILADELPHIA   LGT SNOW  25  21  85 N16G23    29.72R WCI  12
HENDERSON NC   LGT SNOW  32  30  94 CALM      29.73R
GREENSBORO     PTCLDY    28  16  60 NW7       29.74R
ROCKY MOUNT    CLOUDY    36  28  73 N13       29.73R
$$

VAZ100-271100-
MARINE

STATION/POSITION TIME  TEMP    WIND        PRES    WAVE   SWELL
                       AIR SEA DIR/SP/G            HT/PER HT/PER
                 (UTC) (F)     (DEG/KT/KT) (MB)    (FT/S) (FT/S)
BRANDYWINE LGT   1000          360/ 29/ 32   N/A
CAPE MAY NJ      1000   28 39  360/  2/  8 1003.7R
LEWES DE         1000   30 37  350/ 25/ 30 1004.4F
15NM E FENWICK I 1000   30 42              1002.3R  13/12
OCEAN-CITY-INLET 1000   31 39  360/ 19/ 23 1003.5R
WACHAPREAGUE VA  1000   30 42  340/  6/ 14 1004.3R
THOMAS POINT MD  1000   29 37  340/ 16/ 18 1007.5R
GOOSES REEF MD   1000   29     VRB 19/ 23  1005.3R
COVE POINT MD    1000   28     360/ 19/ 25 1005.9R
SOLOMONS ISLAND  1000      38                N/A
BISHOPS HEAD MD  1000   29 36  340/ 12/ 20 1004.9R
PINEY POINT MD   1000          360/ 14/ 17   N/A
POTOMAC MD       1000   29     360/ 14/ 19 1005.0R
CAMBRIDGE MD     1000   29 36  340/ 16/ 18 1005.8R
LEWISETTA VA     1000   29 38  360/ 12/ 20 1005.8F
RAPPAHANNOCK LGT 1000          340/ 26/ 30 1005.0S
STINGRAY PT      1000   30     350/ 17/ 21 1006.0R
YORK RVR RNG VA  1000   30     350/ 25/ 29 1004.3R
YORKTOWN VA      0900   30 41  340/ 15/ 19 1005.2R
JAMESTOWN VA     1000   29     360/ 10/ 16   N/A
DOMINION TERM VA 1000   31     340/  5/ 15 1005.3R
KIPTOPEKE VA     1000      45  360/ 17/ 22   N/A
CHES BAY BRIDGE  1000   31 41  320/ 19/ 24 1004.5R
CAPE HENRY VA    1000   31     320/ 20/ 25 1003.3R
CHESAPEAKE LGHT  0900   33     340/ 28/ 31 1003.9R
WILLOUBY STN VA  1000   30     340/ 17/ 21 1005.6R
S CRANEY ISL VA  1000          340/  9/ 15 1005.3R
CAPE HENRY BUOY  1000      45                N/A     9/11   3/11
1ST LANDING BUOY 1000   32     330/ 21/ 25 1004.4R
CAPE CHARLES BUO 1000      42                N/A     8/11   8/11
OFFSHORE WE BUOY 1000      47                N/A    10/11   8/11
64NM E OF VA BCH 1000   39 52  340/ 25/ 31 1001.1R  14/11  10/11
DUCK PIER NC     1000   33 44  340/ 21/ 27 1002.6F
44100 DUCK FRF   1000      45                N/A    11/11   5/11
44056 DUCK FRF   1000      44                N/A     9/11   5/11
OREGON INLET NC  1000   35 46  320/ 17/ 22 1003.3R
HATTERAS NC      1000   39 50  340/ 20/ 25 1003.6R



USA.gov is the U.S. government's official web portal to all federal, state and local government web resources and services.